Regional Weather Roundup
Issued by NWS

Home | Current Version | Previous Version | Graphics & Text | Print | Product List | Glossary On
Versions: 1 2 3 4 5 6 7 8 9 10 11 12 13 14 15 16 17 18 19 20 21 22 23 24 25 26 27 28 29 30 31 32 33 34 35 36 37 38 39 40 41 42 43 44 45 46 47 48 49 50
025
ASUS43 KDMX 251001
RWRIA

WEATHER ROUNDUP FOR IOWA
NATIONAL WEATHER SERVICE DES MOINES IA
500 AM CDT MON SEP 25 2017

NOTE: "FAIR" INDICATES FEW OR NO CLOUDS BELOW 12,000 FEET WITH NO
SIGNIFICANT WEATHER AND/OR OBSTRUCTIONS TO VISIBILITY.

* - THESE STATIONS ARE NOT NWS STATIONS...THUS NOT UNDER NWS
QUALITY CONTROL.  THEY ALSO DO NOT REPORT WEATHER SUCH
AS PRECIPITATION OR FOG.

IAZ001>003-012>014-020>022-031>034-043>046-251100-
   NORTHWEST IOWA

CITY           SKY/WX    TMP DP  RH WIND       PRES   REMARKS
CARROLL *      CLOUDY    66  66 100 N5        29.94R FOG
CHEROKEE *     DRIZZLE   59  59 100 NE7       29.96S
DENISON *      LGT RAIN  63  63 100 W7        29.99R
LE MARS *      LGT RAIN  57  55  94 E13       29.95F
ORANGE CITY *  LGT RAIN  57  57 100 E10       29.97S
SHELDON *      RAIN      55  54  94 N10G17    29.96F
SIOUX CITY     RAIN      57  57 100 NE9       29.96F
SPENCER        LGT RAIN  57  55  93 N10       29.99R
STORM LAKE *   CLOUDY    61  61 100 N7        29.96S
$$

IAZ055>058-069>071-079>083-090>094-251100-
   SOUTHWEST IOWA

CITY           SKY/WX    TMP DP  RH WIND       PRES   REMARKS
ATLANTIC *     FOG       64  64 100 VRB5      29.93S VSB 1/4
AUDUBON *      CLOUDY    63  61  94 NE5       29.94S FOG
CLARINDA *     CLEAR     63  63 100 CALM      29.94S
COUNCIL BLFS * CLOUDY    61  61 100 NW15      29.96R FOG
CRESTON *      CLEAR     64  63  94 CALM      29.95S
HARLAN  *      CLOUDY    63  63 100 VRB5G14   29.99R
LAMONI         CLOUDY    68  64  87 S5        29.93F
RED OAK *      CLEAR     63  63 100 NE5       29.92S
SHENANDOAH *   CLEAR     64  63  94 E3        29.92R
$$

IAZ047>049-059>061-072>074-084-251100-
   CENTRAL IOWA

CITY           SKY/WX    TMP DP  RH WIND       PRES   REMARKS
AMES           PTCLDY    63  63 100 CALM      29.92S
ANKENY *       PTCLDY    68  63  83 CALM      29.93S
BOONE *        PTCLDY    68  63  83 S6        29.92S
CHARITON *     PTCLDY    66  63  88 S5        29.93S
DES MOINES     PTCLDY    69  64  84 CALM      29.92R
GRINNELL*      CLEAR     66  61  84 S5        29.95S
KNOXVILLE *    CLOUDY    68  63  83 S6        29.92S
MARSHALLTOWN   CLEAR     63  62  97 SE7       29.92S
NEWTON *       PTCLDY    64  63  94 SE5       29.93S
PELLA *        CLEAR     68  62  83 SE3       29.94S
PERRY *        MOCLDY    64  64  98 W3        29.93S FOG
$$

IAZ004>006-015-016-023>025-035-036-251100-
   NORTH CENTRAL IOWA

CITY           SKY/WX    TMP DP  RH WIND       PRES   REMARKS
ALGONA *       CLOUDY    63  63 100 N10G17    29.96S
CLARION *      MOCLDY    68  68 100 E8        29.92S
ESTHERVILLE    CLOUDY    56  56 100 N9        29.97S
FORT DODGE *   MOCLDY    66  65  96 NW3       29.94R
MASON CITY     PTCLDY    63  61  93 W7        29.94F
FOREST CITY *    N/A     66  66 100 NW8       29.95R FOG
WEBSTER CITY * PTCLDY    63  61  94 SE5       29.90S
IOWA FALLS *     N/A     62  60  94 CALM      29.94F
$$

IAZ007>011-017>019-026>030-037>042-050>054-066-251100-
   NORTHEAST IOWA

CITY           SKY/WX    TMP DP  RH WIND       PRES   REMARKS
CEDAR RAPIDS   CLEAR     65  62  90 SE5       29.94S
CHARLES CITY * CLEAR     63  63 100 CALM      29.94S
CLINTON *      CLEAR    N/A N/A N/A S7        29.98R
DECORAH *      CLEAR     66  61  82 CALM      29.94S
DUBUQUE        CLEAR     66  60  81 S3        29.97S
MONTICELLO *   CLEAR     61  59  94 CALM      29.96R
OELWEIN *      PTCLDY    64  63  94 SE6       29.95S
WATERLOO       PTCLDY    67  61  81 SE5       29.92S
$$

IAZ064-065-067-068-078-251100-
   EAST CENTRAL IOWA

CITY           SKY/WX    TMP DP  RH WIND       PRES   REMARKS
DAVENPORT      CLEAR     64  61  90 SE5       29.98S
IOWA CITY      CLEAR     66  61  84 CALM      29.96S
MUSCATINE *    CLEAR     64  63  94 CALM      29.96S
QUAD CITIES    CLEAR     68  59  73 CALM      29.96S
$$

IAZ062-063-075>077-085>089-095>099-251100-
   SOUTHEAST IOWA

CITY           SKY/WX    TMP DP  RH WIND       PRES   REMARKS
BURLINGTON     PTCLDY    68  64  87 CALM      29.95S
FAIRFIELD *    CLEAR     66  61  82 SE3       29.94S
FORT MADISON * CLEAR     70  63  78 S8        29.97R
KEOKUK *       CLEAR     68  63  83 CALM      29.95S
OSKALOOSA *      N/A     64  62  90 SE3       29.94S
OTTUMWA        CLEAR     69  63  81 S3        29.94S
WASHINGTON *   CLEAR     63  63 100 SE6       29.96S
$$

ABBREVIATIONS USED IN REMARKS
   TC - TEMPERATURES IN CELSIUS
  WCI - WIND CHILL INDEX
   HX - HEAT INDEX
  VSB - VISIBILITY
$$





USA.gov is the U.S. government's official web portal to all federal, state and local government web resources and services.